Year,Month,Day,Hour,Minute,Value (Times are PST for temperature in C)
2018,07,22,00,00,10.60
2018,07,22,00,01,10.60
2018,07,22,00,02,10.60
2018,07,22,00,03,10.60
2018,07,22,00,04,10.60
2018,07,22,00,05,10.60
2018,07,22,00,06,10.60
2018,07,22,00,07,10.60
2018,07,22,00,08,10.60
2018,07,22,00,09,10.60
2018,07,22,00,10,10.60
2018,07,22,00,11,10.50
2018,07,22,00,12,10.50
2018,07,22,00,13,10.50
2018,07,22,00,14,10.50
2018,07,22,00,15,10.50
2018,07,22,00,16,10.50
2018,07,22,00,17,10.50
2018,07,22,00,18,10.50
2018,07,22,00,19,10.50
2018,07,22,00,20,10.40
2018,07,22,00,21,10.40
2018,07,22,00,22,10.40
2018,07,22,00,23,10.40
2018,07,22,00,24,10.40
2018,07,22,00,25,10.40
2018,07,22,00,26,10.40
2018,07,22,00,27,10.40
2018,07,22,00,28,10.40
2018,07,22,00,29,10.30
2018,07,22,00,30,10.30
2018,07,22,00,31,10.30
2018,07,22,00,32,10.30
2018,07,22,00,33,10.30
2018,07,22,00,34,10.30
2018,07,22,00,35,10.30
2018,07,22,00,36,10.30
2018,07,22,00,37,10.30
2018,07,22,00,38,10.30
2018,07,22,00,39,10.30
2018,07,22,00,40,10.20
2018,07,22,00,41,10.20
2018,07,22,00,42,10.20
2018,07,22,00,43,10.20
2018,07,22,00,44,10.20
2018,07,22,00,45,10.20
2018,07,22,00,46,10.20
2018,07,22,00,47,10.20
2018,07,22,00,48,10.20
2018,07,22,00,49,10.20
2018,07,22,00,50,10.20
2018,07,22,00,51,10.20
2018,07,22,00,52,10.20
2018,07,22,00,53,10.20
2018,07,22,00,54,10.20
2018,07,22,00,55,10.20
2018,07,22,00,56,10.20
2018,07,22,00,57,10.20
2018,07,22,00,58,10.20
2018,07,22,00,59,10.20
2018,07,22,01,00,10.20
2018,07,22,01,01,10.20
2018,07,22,01,02,10.20
2018,07,22,01,03,10.20
2018,07,22,01,04,10.20
2018,07,22,01,05,10.20
2018,07,22,01,06,10.20
2018,07,22,01,07,10.20
2018,07,22,01,08,10.20
2018,07,22,01,09,10.20
2018,07,22,01,10,10.20
2018,07,22,01,11,10.20
2018,07,22,01,12,10.20
2018,07,22,01,13,10.20
2018,07,22,01,14,10.20
2018,07,22,01,15,10.20
2018,07,22,01,16,10.20
2018,07,22,01,17,10.20
2018,07,22,01,18,10.20
2018,07,22,01,19,10.20
2018,07,22,01,20,10.20
2018,07,22,01,21,10.20
2018,07,22,01,22,10.20
2018,07,22,01,23,10.20
2018,07,22,01,24,10.20
2018,07,22,01,25,10.20
2018,07,22,01,26,10.20
2018,07,22,01,27,10.20
2018,07,22,01,28,10.20
2018,07,22,01,29,10.10
2018,07,22,01,30,10.10
2018,07,22,01,31,10.10
2018,07,22,01,32,10.10
2018,07,22,01,33,10.10
2018,07,22,01,34,10.10
2018,07,22,01,35,10.10
2018,07,22,01,36,10.10
2018,07,22,01,37,10.10
2018,07,22,01,38,10.00
2018,07,22,01,39,10.00
2018,07,22,01,40,10.10
2018,07,22,01,41,10.10
2018,07,22,01,42,10.10
2018,07,22,01,43,10.10
2018,07,22,01,44,10.10
2018,07,22,01,45,10.10
2018,07,22,01,46,10.10
2018,07,22,01,47,10.10
2018,07,22,01,48,10.10
2018,07,22,01,49,10.10
2018,07,22,01,50,10.10
2018,07,22,01,51,10.10
2018,07,22,01,52,10.10
2018,07,22,01,53,10.20
2018,07,22,01,54,10.20
2018,07,22,01,55,10.20
2018,07,22,01,56,10.20
2018,07,22,01,57,10.30
2018,07,22,01,58,10.30
2018,07,22,01,59,10.30
2018,07,22,02,00,10.30
2018,07,22,02,01,10.30
2018,07,22,02,02,10.30
2018,07,22,02,03,10.30
2018,07,22,02,04,10.30
2018,07,22,02,05,10.30
2018,07,22,02,06,10.30
2018,07,22,02,07,10.30
2018,07,22,02,08,10.30
2018,07,22,02,09,10.30
2018,07,22,02,10,10.30
2018,07,22,02,11,10.30
2018,07,22,02,12,10.30
2018,07,22,02,13,10.30
2018,07,22,02,14,10.30
2018,07,22,02,15,10.30
2018,07,22,02,16,10.30
2018,07,22,02,17,10.30
2018,07,22,02,18,10.30
2018,07,22,02,19,10.30
2018,07,22,02,20,10.30
2018,07,22,02,21,10.30
2018,07,22,02,22,10.40
2018,07,22,02,23,10.50
2018,07,22,02,24,10.50
2018,07,22,02,25,10.60
2018,07,22,02,26,10.60
2018,07,22,02,27,10.60
2018,07,22,02,28,10.70
2018,07,22,02,29,10.70
2018,07,22,02,30,10.70
2018,07,22,02,31,10.70
2018,07,22,02,32,10.80
2018,07,22,02,33,10.80
2018,07,22,02,34,10.70
2018,07,22,02,35,10.70
2018,07,22,02,36,10.70
2018,07,22,02,37,10.60
2018,07,22,02,38,10.60
2018,07,22,02,39,10.60
2018,07,22,02,40,10.60
2018,07,22,02,41,10.60
2018,07,22,02,42,10.60
2018,07,22,02,43,10.60
2018,07,22,02,44,10.60
2018,07,22,02,45,10.60
2018,07,22,02,46,10.50
2018,07,22,02,47,10.50
2018,07,22,02,48,10.50
2018,07,22,02,49,10.40
2018,07,22,02,50,10.40
2018,07,22,02,51,10.40
2018,07,22,02,52,10.40
2018,07,22,02,53,10.30
2018,07,22,02,54,10.30
2018,07,22,02,55,10.30
2018,07,22,02,56,10.30
2018,07,22,02,57,10.30
2018,07,22,02,58,10.30
2018,07,22,02,59,10.30
2018,07,22,03,00,10.30
2018,07,22,03,01,10.30
2018,07,22,03,02,10.30
2018,07,22,03,03,10.30
2018,07,22,03,04,10.30
2018,07,22,03,05,10.40
2018,07,22,03,06,10.30
2018,07,22,03,07,10.30
2018,07,22,03,08,10.40
2018,07,22,03,09,10.40
2018,07,22,03,10,10.40
2018,07,22,03,11,10.40
2018,07,22,03,12,10.40
2018,07,22,03,13,10.40
2018,07,22,03,14,10.40
2018,07,22,03,15,10.40
2018,07,22,03,16,10.30
2018,07,22,03,17,10.30
2018,07,22,03,18,10.30
2018,07,22,03,19,10.40
2018,07,22,03,20,10.50
2018,07,22,03,21,10.50
2018,07,22,03,22,10.50
2018,07,22,03,23,10.50
2018,07,22,03,24,10.50
2018,07,22,03,25,10.50
2018,07,22,03,26,10.60
2018,07,22,03,27,10.60
2018,07,22,03,28,10.70
2018,07,22,03,29,10.80
2018,07,22,03,30,10.90
2018,07,22,03,31,10.90
2018,07,22,03,32,11.00
2018,07,22,03,33,11.00
2018,07,22,03,34,11.10
2018,07,22,03,35,11.10
2018,07,22,03,36,11.10
2018,07,22,03,37,11.10
2018,07,22,03,38,11.20
2018,07,22,03,39,11.20
2018,07,22,03,40,11.20
2018,07,22,03,41,11.20
2018,07,22,03,42,11.20
2018,07,22,03,43,11.20
2018,07,22,03,44,11.20
2018,07,22,03,45,11.20
2018,07,22,03,46,11.20
2018,07,22,03,47,11.20
2018,07,22,03,48,11.20
2018,07,22,03,49,11.20
2018,07,22,03,50,11.30
2018,07,22,03,51,11.30
2018,07,22,03,52,11.30
2018,07,22,03,53,11.30
2018,07,22,03,54,11.30
2018,07,22,03,55,11.20
2018,07,22,03,56,11.20
2018,07,22,03,57,11.20
2018,07,22,03,58,11.20
2018,07,22,03,59,11.20
2018,07,22,04,00,11.20
2018,07,22,04,01,11.30
2018,07,22,04,02,11.30
2018,07,22,04,03,11.30
2018,07,22,04,04,11.30
2018,07,22,04,05,11.30
2018,07,22,04,06,11.30
2018,07,22,04,07,11.30
2018,07,22,04,08,11.30
2018,07,22,04,09,11.30
2018,07,22,04,10,11.30
2018,07,22,04,11,11.30
2018,07,22,04,12,11.30
2018,07,22,04,13,11.30
2018,07,22,04,14,11.20
2018,07,22,04,15,11.20
2018,07,22,04,16,11.20
2018,07,22,04,17,11.20
2018,07,22,04,18,11.10
2018,07,22,04,19,11.10
2018,07,22,04,20,11.10
2018,07,22,04,21,11.10
2018,07,22,04,22,11.00
2018,07,22,04,23,11.00
2018,07,22,04,24,11.00
2018,07,22,04,25,10.90
2018,07,22,04,26,10.90
2018,07,22,04,27,10.90
2018,07,22,04,28,10.90
2018,07,22,04,29,10.90
2018,07,22,04,30,10.90
2018,07,22,04,31,10.90
2018,07,22,04,32,10.80
2018,07,22,04,33,10.90
2018,07,22,04,34,10.90
2018,07,22,04,35,10.90
2018,07,22,04,36,10.90
2018,07,22,04,37,10.90
2018,07,22,04,38,10.90
2018,07,22,04,39,10.90
2018,07,22,04,40,10.90
2018,07,22,04,41,10.90
2018,07,22,04,42,11.00
2018,07,22,04,43,11.10
2018,07,22,04,44,11.10
2018,07,22,04,45,11.10
2018,07,22,04,46,11.10
2018,07,22,04,47,11.10
2018,07,22,04,48,11.20
2018,07,22,04,49,11.20
2018,07,22,04,50,11.20
2018,07,22,04,51,11.20
2018,07,22,04,52,11.10
2018,07,22,04,53,11.10
2018,07,22,04,54,11.10
2018,07,22,04,55,11.10
2018,07,22,04,56,11.10
2018,07,22,04,57,11.00
2018,07,22,04,58,11.00
2018,07,22,04,59,11.00
2018,07,22,05,00,11.00
2018,07,22,05,01,11.00
2018,07,22,05,02,11.00
2018,07,22,05,03,11.00
2018,07,22,05,04,10.90
2018,07,22,05,05,10.90
2018,07,22,05,06,10.90
2018,07,22,05,07,10.90
2018,07,22,05,08,10.90
2018,07,22,05,09,10.80
2018,07,22,05,10,10.80
2018,07,22,05,11,10.80
2018,07,22,05,12,10.80
2018,07,22,05,13,10.80
2018,07,22,05,14,10.70
2018,07,22,05,15,10.70
2018,07,22,05,16,10.70
2018,07,22,05,17,10.70
2018,07,22,05,18,10.70
2018,07,22,05,19,10.60
2018,07,22,05,20,10.60
2018,07,22,05,21,10.60
2018,07,22,05,22,10.60
2018,07,22,05,23,10.50
2018,07,22,05,24,10.50
2018,07,22,05,25,10.50
2018,07,22,05,26,10.40
2018,07,22,05,27,10.40
2018,07,22,05,28,10.40
2018,07,22,05,29,10.30
2018,07,22,05,30,10.30
2018,07,22,05,31,10.30
2018,07,22,05,32,10.30
2018,07,22,05,33,10.30
2018,07,22,05,34,10.30
2018,07,22,05,35,10.30
2018,07,22,05,36,10.30
2018,07,22,05,37,10.30
2018,07,22,05,38,10.30
2018,07,22,05,39,10.30
2018,07,22,05,40,10.20
2018,07,22,05,41,10.20
2018,07,22,05,42,10.20
2018,07,22,05,43,10.20
2018,07,22,05,44,10.20
2018,07,22,05,45,10.20
2018,07,22,05,46,10.20
2018,07,22,05,47,10.10
2018,07,22,05,48,10.10
2018,07,22,05,49,10.10
2018,07,22,05,50,10.10
2018,07,22,05,51,10.10
2018,07,22,05,52,10.10
2018,07,22,05,53,10.10
2018,07,22,05,54,10.10
2018,07,22,05,55,10.10
2018,07,22,05,56,10.10
2018,07,22,05,57,10.10
2018,07,22,05,58,10.10
2018,07,22,05,59,10.10
2018,07,22,06,00,10.10
2018,07,22,06,01,10.00
2018,07,22,06,02,10.00
2018,07,22,06,03,10.10
2018,07,22,06,04,10.10
2018,07,22,06,05,10.10
2018,07,22,06,06,10.10
2018,07,22,06,07,10.10
2018,07,22,06,08,10.10
2018,07,22,06,09,10.10
2018,07,22,06,10,10.10
2018,07,22,06,11,10.10
2018,07,22,06,12,10.10
2018,07,22,06,13,10.10
2018,07,22,06,14,10.10
2018,07,22,06,15,10.10
2018,07,22,06,16,10.10
2018,07,22,06,17,10.20
2018,07,22,06,18,10.20
2018,07,22,06,19,10.20
2018,07,22,06,20,10.30
2018,07,22,06,21,10.30
2018,07,22,06,22,10.40
2018,07,22,06,23,10.50
2018,07,22,06,24,10.50
2018,07,22,06,25,10.60
2018,07,22,06,26,10.60
2018,07,22,06,27,10.50
2018,07,22,06,28,10.60
2018,07,22,06,29,10.60
2018,07,22,06,30,10.60
2018,07,22,06,31,10.70
2018,07,22,06,32,10.70
2018,07,22,06,33,10.70
2018,07,22,06,34,10.70
2018,07,22,06,35,10.70
2018,07,22,06,36,10.70
2018,07,22,06,37,10.70
2018,07,22,06,38,10.70
2018,07,22,06,39,10.80
2018,07,22,06,40,10.80
2018,07,22,06,41,10.80
2018,07,22,06,42,10.90
2018,07,22,06,43,11.00
2018,07,22,06,44,11.10
2018,07,22,06,45,11.20
2018,07,22,06,46,11.20
2018,07,22,06,47,11.30
2018,07,22,06,48,11.30
2018,07,22,06,49,11.40
2018,07,22,06,50,11.40
2018,07,22,06,51,11.50
2018,07,22,06,52,11.60
2018,07,22,06,53,11.60
2018,07,22,06,54,11.70
2018,07,22,06,55,11.80
2018,07,22,06,56,11.90
2018,07,22,06,57,12.00
2018,07,22,06,58,12.10
2018,07,22,06,59,12.20
2018,07,22,07,00,12.20
2018,07,22,07,01,12.30
2018,07,22,07,02,12.40
2018,07,22,07,03,12.50
2018,07,22,07,04,12.60
2018,07,22,07,05,12.70
2018,07,22,07,06,12.80
2018,07,22,07,07,12.80
2018,07,22,07,08,12.80
2018,07,22,07,09,12.80
2018,07,22,07,10,12.90
2018,07,22,07,11,12.90
2018,07,22,07,12,12.90
2018,07,22,07,13,13.00
2018,07,22,07,14,13.00
2018,07,22,07,15,13.10
2018,07,22,07,16,13.10
2018,07,22,07,17,13.10
2018,07,22,07,18,13.10
2018,07,22,07,19,13.20
2018,07,22,07,20,13.20
2018,07,22,07,21,13.20
2018,07,22,07,22,13.20
2018,07,22,07,23,13.20
2018,07,22,07,24,13.20
2018,07,22,07,25,13.20
2018,07,22,07,26,13.30
2018,07,22,07,27,13.30
2018,07,22,07,28,13.30
2018,07,22,07,29,13.30
2018,07,22,07,30,13.40
2018,07,22,07,31,13.50
2018,07,22,07,32,13.60
2018,07,22,07,33,13.70
2018,07,22,07,34,13.80
2018,07,22,07,35,13.80
2018,07,22,07,36,13.90
2018,07,22,07,37,13.90
2018,07,22,07,38,14.00
2018,07,22,07,39,14.00
2018,07,22,07,40,14.10
2018,07,22,07,41,14.20
2018,07,22,07,42,14.20
2018,07,22,07,43,14.30
2018,07,22,07,44,14.30
2018,07,22,07,45,14.40
2018,07,22,07,46,14.40
2018,07,22,07,47,14.50
2018,07,22,07,48,14.50
2018,07,22,07,49,14.60
2018,07,22,07,50,14.70
2018,07,22,07,51,14.80
2018,07,22,07,52,14.80
2018,07,22,07,53,14.90
2018,07,22,07,54,14.90
2018,07,22,07,55,14.90
2018,07,22,07,56,15.00
2018,07,22,07,57,15.00
2018,07,22,07,58,15.00
2018,07,22,07,59,15.10
2018,07,22,08,00,15.10
2018,07,22,08,01,15.20
2018,07,22,08,02,15.30
2018,07,22,08,03,15.30
2018,07,22,08,04,15.40
2018,07,22,08,05,15.40
2018,07,22,08,06,15.50
2018,07,22,08,07,15.60
2018,07,22,08,08,15.60
2018,07,22,08,09,15.60
2018,07,22,08,10,15.70
2018,07,22,08,11,15.80
2018,07,22,08,12,15.80
2018,07,22,08,13,15.90
2018,07,22,08,14,15.90
2018,07,22,08,15,15.90
2018,07,22,08,16,16.00
2018,07,22,08,17,16.00
2018,07,22,08,18,16.10
2018,07,22,08,19,16.10
2018,07,22,08,20,16.20
2018,07,22,08,21,16.20
2018,07,22,08,22,16.30
2018,07,22,08,23,16.20
2018,07,22,08,24,16.20
2018,07,22,08,25,16.20
2018,07,22,08,26,16.30
2018,07,22,08,27,16.30
2018,07,22,08,28,16.40
2018,07,22,08,29,16.50
2018,07,22,08,30,16.60
2018,07,22,08,31,16.70
2018,07,22,08,32,16.80
2018,07,22,08,33,16.80
2018,07,22,08,34,16.80
2018,07,22,08,35,16.80
2018,07,22,08,36,16.90
2018,07,22,08,37,17.00
2018,07,22,08,38,17.10
2018,07,22,08,39,17.10
2018,07,22,08,40,17.20
2018,07,22,08,41,17.20
2018,07,22,08,42,17.20
2018,07,22,08,43,17.30
2018,07,22,08,44,17.30
2018,07,22,08,45,17.40
2018,07,22,08,46,17.50
2018,07,22,08,47,17.50
2018,07,22,08,48,17.60
2018,07,22,08,49,17.60
2018,07,22,08,50,17.70
2018,07,22,08,51,17.80
2018,07,22,08,52,17.90
2018,07,22,08,53,18.00
2018,07,22,08,54,18.10
2018,07,22,08,55,18.10
2018,07,22,08,56,18.20
2018,07,22,08,57,18.20
2018,07,22,08,58,18.30
2018,07,22,08,59,18.40
2018,07,22,09,00,18.40
2018,07,22,09,01,18.40
2018,07,22,09,02,18.40
2018,07,22,09,03,18.40
2018,07,22,09,04,18.40
2018,07,22,09,05,18.30
2018,07,22,09,06,18.20
2018,07,22,09,07,18.20
2018,07,22,09,08,18.10
2018,07,22,09,09,18.00
2018,07,22,09,10,17.80
2018,07,22,09,11,17.60
2018,07,22,09,12,17.40
2018,07,22,09,13,17.20
2018,07,22,09,14,17.00
2018,07,22,09,15,17.00
2018,07,22,09,16,16.90
2018,07,22,09,17,16.90
2018,07,22,09,18,16.90
2018,07,22,09,19,16.90
2018,07,22,09,20,16.90
2018,07,22,09,21,16.90
2018,07,22,09,22,16.90
2018,07,22,09,23,17.00
2018,07,22,09,24,17.00
2018,07,22,09,25,17.10
2018,07,22,09,26,17.20
2018,07,22,09,27,17.20
2018,07,22,09,28,17.20
2018,07,22,09,29,17.30
2018,07,22,09,30,17.30
2018,07,22,09,31,17.30
2018,07,22,09,32,17.40
2018,07,22,09,33,17.40
2018,07,22,09,34,17.50
2018,07,22,09,35,17.50
2018,07,22,09,36,17.50
2018,07,22,09,37,17.60
2018,07,22,09,38,17.70
2018,07,22,09,39,17.80
2018,07,22,09,40,17.80
2018,07,22,09,41,17.90
2018,07,22,09,42,17.90
2018,07,22,09,43,17.90
2018,07,22,09,44,17.90
2018,07,22,09,45,17.90
2018,07,22,09,46,17.90
2018,07,22,09,47,17.80
2018,07,22,09,48,17.80
2018,07,22,09,49,17.80
2018,07,22,09,50,17.80
2018,07,22,09,51,17.80
2018,07,22,09,52,17.70
2018,07,22,09,53,17.70
2018,07,22,09,54,17.80
2018,07,22,09,55,17.80
2018,07,22,09,56,17.80
2018,07,22,09,57,17.90
2018,07,22,09,58,17.90
2018,07,22,09,59,18.00
2018,07,22,10,00,18.00
2018,07,22,10,01,18.00
2018,07,22,10,02,17.90
2018,07,22,10,03,17.90
2018,07,22,10,04,17.90
2018,07,22,10,05,17.90
2018,07,22,10,06,17.80
2018,07,22,10,07,17.80
2018,07,22,10,08,17.80
2018,07,22,10,09,17.70
2018,07,22,10,10,17.70
2018,07,22,10,11,17.70
2018,07,22,10,12,17.80
2018,07,22,10,13,17.70
2018,07,22,10,14,17.70
2018,07,22,10,15,17.70
2018,07,22,10,16,17.80
2018,07,22,10,17,17.90
2018,07,22,10,18,17.90
2018,07,22,10,19,18.00
2018,07,22,10,20,18.10
2018,07,22,10,21,18.20
2018,07,22,10,22,18.30
2018,07,22,10,23,18.40
2018,07,22,10,24,18.60
2018,07,22,10,25,18.70
2018,07,22,10,26,18.80
2018,07,22,10,27,19.00
2018,07,22,10,28,19.10
2018,07,22,10,29,19.20
2018,07,22,10,30,19.20
2018,07,22,10,31,19.30
2018,07,22,10,32,19.40
2018,07,22,10,33,19.50
2018,07,22,10,34,19.60
2018,07,22,10,35,19.70
2018,07,22,10,36,19.70
2018,07,22,10,37,19.80
2018,07,22,10,38,19.90
2018,07,22,10,39,20.10
2018,07,22,10,40,20.20
2018,07,22,10,41,20.40
2018,07,22,10,42,20.50
2018,07,22,10,43,20.70
2018,07,22,10,44,20.80
2018,07,22,10,45,20.90
2018,07,22,10,46,21.10
2018,07,22,10,47,21.20
2018,07,22,10,48,21.30
2018,07,22,10,49,21.40
2018,07,22,10,50,21.40
2018,07,22,10,51,21.40
2018,07,22,10,52,21.40
2018,07,22,10,53,21.40
2018,07,22,10,54,21.20
2018,07,22,10,55,21.10
2018,07,22,10,56,21.10
2018,07,22,10,57,21.10
2018,07,22,10,58,21.10
2018,07,22,10,59,21.00
2018,07,22,11,00,21.00
2018,07,22,11,01,21.00
2018,07,22,11,02,21.10
2018,07,22,11,03,21.10
2018,07,22,11,04,21.20
2018,07,22,11,05,21.20
2018,07,22,11,06,21.30
2018,07,22,11,07,21.40
2018,07,22,11,08,21.50
2018,07,22,11,09,21.60
2018,07,22,11,10,21.70
2018,07,22,11,11,21.70
2018,07,22,11,12,21.80
2018,07,22,11,13,21.90
2018,07,22,11,14,21.90
2018,07,22,11,15,22.00
2018,07,22,11,16,22.00
2018,07,22,11,17,22.10
2018,07,22,11,18,22.10
2018,07,22,11,19,22.10
2018,07,22,11,20,22.10
2018,07,22,11,21,22.10
2018,07,22,11,22,22.10
2018,07,22,11,23,22.10
2018,07,22,11,24,22.10
2018,07,22,11,25,22.10
2018,07,22,11,26,22.20
2018,07,22,11,27,22.20
2018,07,22,11,28,22.20
2018,07,22,11,29,22.20
2018,07,22,11,30,22.20
2018,07,22,11,31,22.20
2018,07,22,11,32,22.20
2018,07,22,11,33,22.10
2018,07,22,11,34,22.00
2018,07,22,11,35,21.90
2018,07,22,11,36,21.90
2018,07,22,11,37,21.80
2018,07,22,11,38,21.80
2018,07,22,11,39,21.80
2018,07,22,11,40,21.90
2018,07,22,11,41,22.00
2018,07,22,11,42,22.00
2018,07,22,11,43,22.10
2018,07,22,11,44,22.10
2018,07,22,11,45,22.10
2018,07,22,11,46,22.10
2018,07,22,11,47,22.20
2018,07,22,11,48,22.20
2018,07,22,11,49,22.20
2018,07,22,11,50,22.20
2018,07,22,11,51,22.10
2018,07,22,11,52,22.10
2018,07,22,11,53,22.10
2018,07,22,11,54,22.10
2018,07,22,11,55,22.10
2018,07,22,11,56,22.00
2018,07,22,11,57,22.00
2018,07,22,11,58,21.90
2018,07,22,11,59,21.90
2018,07,22,12,00,21.90
2018,07,22,12,01,21.90
2018,07,22,12,02,22.00
2018,07,22,12,03,22.10
2018,07,22,12,04,22.20
2018,07,22,12,05,22.30
2018,07,22,12,06,22.40
2018,07,22,12,07,22.50
2018,07,22,12,08,22.60
2018,07,22,12,09,22.70
2018,07,22,12,10,22.70
2018,07,22,12,11,22.70
2018,07,22,12,12,22.70
2018,07,22,12,13,22.70
2018,07,22,12,14,22.70
2018,07,22,12,15,22.70
2018,07,22,12,16,22.70
2018,07,22,12,17,22.80
2018,07,22,12,18,22.90
2018,07,22,12,19,22.90
2018,07,22,12,20,22.80
2018,07,22,12,21,22.80
2018,07,22,12,22,22.80
2018,07,22,12,23,22.90
2018,07,22,12,24,22.90
2018,07,22,12,25,22.80
2018,07,22,12,26,22.80
2018,07,22,12,27,22.80
2018,07,22,12,28,22.70
2018,07,22,12,29,22.60
2018,07,22,12,30,22.60
2018,07,22,12,31,22.60
2018,07,22,12,32,22.60
2018,07,22,12,33,22.60
2018,07,22,12,34,22.60
2018,07,22,12,35,22.70
2018,07,22,12,36,22.70
2018,07,22,12,37,22.70
2018,07,22,12,38,22.70
2018,07,22,12,39,22.70
2018,07,22,12,40,22.80
2018,07,22,12,41,22.90
2018,07,22,12,42,23.00
2018,07,22,12,43,23.10
2018,07,22,12,44,23.20
2018,07,22,12,45,23.10
2018,07,22,12,46,23.10
2018,07,22,12,47,23.10
2018,07,22,12,48,23.00
2018,07,22,12,49,23.00
2018,07,22,12,50,23.00
2018,07,22,12,51,22.90
2018,07,22,12,52,22.90
2018,07,22,12,53,22.90
2018,07,22,12,54,22.90
2018,07,22,12,55,22.90
2018,07,22,12,56,22.80
2018,07,22,12,57,22.80
2018,07,22,12,58,22.80
2018,07,22,12,59,22.90
2018,07,22,13,00,22.90
2018,07,22,13,01,22.90
2018,07,22,13,02,22.90
2018,07,22,13,03,22.90
2018,07,22,13,04,22.90
2018,07,22,13,05,22.80
2018,07,22,13,06,22.80
2018,07,22,13,07,22.70
2018,07,22,13,08,22.70
2018,07,22,13,09,22.80
2018,07,22,13,10,22.80
2018,07,22,13,11,22.80
2018,07,22,13,12,22.80
2018,07,22,13,13,22.90
2018,07,22,13,14,23.00
2018,07,22,13,15,23.10
2018,07,22,13,16,23.20
2018,07,22,13,17,23.30
2018,07,22,13,18,23.30
2018,07,22,13,19,23.30
2018,07,22,13,20,23.30
2018,07,22,13,21,23.30
2018,07,22,13,22,23.30
2018,07,22,13,23,23.40
2018,07,22,13,24,23.50
2018,07,22,13,25,23.50
2018,07,22,13,26,23.50
2018,07,22,13,27,23.40
2018,07,22,13,28,23.30
2018,07,22,13,29,23.30
2018,07,22,13,30,23.20
2018,07,22,13,31,23.20
2018,07,22,13,32,23.10
2018,07,22,13,33,23.00
2018,07,22,13,34,22.80
2018,07,22,13,35,22.70
2018,07,22,13,36,22.60
2018,07,22,13,37,22.50
2018,07,22,13,38,22.40
2018,07,22,13,39,22.40
2018,07,22,13,40,22.30
2018,07,22,13,41,22.30
2018,07,22,13,42,22.30
2018,07,22,13,43,22.40
2018,07,22,13,44,22.40
2018,07,22,13,45,22.40
2018,07,22,13,46,22.50
2018,07,22,13,47,22.50
2018,07,22,13,48,22.60
2018,07,22,13,49,22.70
2018,07,22,13,50,22.80
2018,07,22,13,51,22.90
2018,07,22,13,52,23.00
2018,07,22,13,53,23.20
2018,07,22,13,54,23.30
2018,07,22,13,55,23.30
2018,07,22,13,56,23.30
2018,07,22,13,57,23.30
2018,07,22,13,58,23.30
2018,07,22,13,59,23.30
2018,07,22,14,00,23.30
2018,07,22,14,01,23.30
2018,07,22,14,02,23.30
2018,07,22,14,03,23.30
2018,07,22,14,04,23.40
2018,07,22,14,05,23.40
2018,07,22,14,06,23.40
2018,07,22,14,07,23.40
2018,07,22,14,08,23.40
2018,07,22,14,09,23.30
2018,07,22,14,10,23.30
2018,07,22,14,11,23.30
2018,07,22,14,12,23.20
2018,07,22,14,13,23.20
2018,07,22,14,14,23.20
2018,07,22,14,15,23.20
2018,07,22,14,16,23.20
2018,07,22,14,17,23.10
2018,07,22,14,18,23.10
2018,07,22,14,19,23.00
2018,07,22,14,20,22.90
2018,07,22,14,21,22.90
2018,07,22,14,22,22.90
2018,07,22,14,23,22.90
2018,07,22,14,24,22.90
2018,07,22,14,25,23.00
2018,07,22,14,26,23.00
2018,07,22,14,27,23.00
2018,07,22,14,28,22.90
2018,07,22,14,29,23.00
2018,07,22,14,30,23.00
2018,07,22,14,31,23.00
2018,07,22,14,32,23.10
2018,07,22,14,33,23.10
2018,07,22,14,34,23.10
2018,07,22,14,35,23.20
2018,07,22,14,36,23.40
2018,07,22,14,37,23.50
2018,07,22,14,38,23.60
2018,07,22,14,39,23.70
2018,07,22,14,40,23.90
2018,07,22,14,41,24.00
2018,07,22,14,42,24.20
2018,07,22,14,43,24.40
2018,07,22,14,44,24.50
2018,07,22,14,45,24.60
2018,07,22,14,46,24.80
2018,07,22,14,47,24.90
2018,07,22,14,48,25.00
2018,07,22,14,49,25.10
2018,07,22,14,50,25.20
2018,07,22,14,51,25.30
2018,07,22,14,52,25.40
2018,07,22,14,53,25.50
2018,07,22,14,54,25.50
2018,07,22,14,55,25.60
2018,07,22,14,56,25.70
2018,07,22,14,57,25.80
2018,07,22,14,58,25.90
2018,07,22,14,59,26.00
2018,07,22,15,00,26.00
2018,07,22,15,01,26.20
2018,07,22,15,02,26.20
2018,07,22,15,03,26.30
2018,07,22,15,04,26.40
2018,07,22,15,05,26.40
2018,07,22,15,06,26.50
2018,07,22,15,07,26.60
2018,07,22,15,08,26.50
2018,07,22,15,09,26.40
2018,07,22,15,10,26.40
2018,07,22,15,11,26.40
2018,07,22,15,12,26.40
2018,07,22,15,13,26.50
2018,07,22,15,14,26.50
2018,07,22,15,15,26.60
2018,07,22,15,16,26.60
2018,07,22,15,17,26.60
2018,07,22,15,18,26.60
2018,07,22,15,19,26.60
2018,07,22,15,20,26.50
2018,07,22,15,21,26.20
2018,07,22,15,22,25.90
2018,07,22,15,23,25.60
2018,07,22,15,24,25.30
2018,07,22,15,25,25.00
2018,07,22,15,26,24.90
2018,07,22,15,27,24.70
2018,07,22,15,28,24.40
2018,07,22,15,29,24.20
2018,07,22,15,30,24.00
2018,07,22,15,31,23.90
2018,07,22,15,32,23.70
2018,07,22,15,33,23.50
2018,07,22,15,34,23.50
2018,07,22,15,35,23.30
2018,07,22,15,36,23.10
2018,07,22,15,37,23.10
2018,07,22,15,38,23.00
2018,07,22,15,39,23.00
2018,07,22,15,40,23.10
2018,07,22,15,41,23.10
2018,07,22,15,42,23.20
2018,07,22,15,43,23.20
2018,07,22,15,44,23.20
2018,07,22,15,45,23.30
2018,07,22,15,46,23.30
2018,07,22,15,47,23.40
2018,07,22,15,48,23.40
2018,07,22,15,49,23.50
2018,07,22,15,50,23.60
2018,07,22,15,51,23.60
2018,07,22,15,52,23.70
2018,07,22,15,53,23.80
2018,07,22,15,54,23.90
2018,07,22,15,55,23.90
2018,07,22,15,56,23.90
2018,07,22,15,57,23.80
2018,07,22,15,58,23.80
2018,07,22,15,59,23.70
2018,07,22,16,00,23.80
2018,07,22,16,01,23.90
2018,07,22,16,02,24.00
2018,07,22,16,03,24.20
2018,07,22,16,04,24.40
2018,07,22,16,05,24.70
2018,07,22,16,06,25.00
2018,07,22,16,07,25.20
2018,07,22,16,08,25.40
2018,07,22,16,09,25.60
2018,07,22,16,10,25.80
2018,07,22,16,11,26.00
2018,07,22,16,12,26.10
2018,07,22,16,13,26.30
2018,07,22,16,14,26.40
2018,07,22,16,15,26.50
2018,07,22,16,16,26.50
2018,07,22,16,17,26.50
2018,07,22,16,18,26.50
2018,07,22,16,19,26.60
2018,07,22,16,20,26.60
2018,07,22,16,21,26.60
2018,07,22,16,22,26.60
2018,07,22,16,23,26.50
2018,07,22,16,24,26.40
2018,07,22,16,25,26.40
2018,07,22,16,26,26.40
2018,07,22,16,27,26.40
2018,07,22,16,28,26.30
2018,07,22,16,29,26.30
2018,07,22,16,30,26.20
2018,07,22,16,31,26.10
2018,07,22,16,32,26.00
2018,07,22,16,33,25.90
2018,07,22,16,34,25.80
2018,07,22,16,35,25.80
2018,07,22,16,36,25.80
2018,07,22,16,37,25.70
2018,07,22,16,38,25.60
2018,07,22,16,39,25.50
2018,07,22,16,40,25.50
2018,07,22,16,41,25.50
2018,07,22,16,42,25.40
2018,07,22,16,43,25.40
2018,07,22,16,44,25.40
2018,07,22,16,45,25.30
2018,07,22,16,46,25.30
2018,07,22,16,47,25.30
2018,07,22,16,48,25.30
2018,07,22,16,49,25.40
2018,07,22,16,50,25.40
2018,07,22,16,51,25.40
2018,07,22,16,52,25.50
2018,07,22,16,53,25.60
2018,07,22,16,54,25.60
2018,07,22,16,55,25.70
2018,07,22,16,56,25.70
2018,07,22,16,57,25.70
2018,07,22,16,58,25.70
2018,07,22,16,59,25.70
2018,07,22,17,00,25.70
2018,07,22,17,01,25.80
2018,07,22,17,02,25.80
2018,07,22,17,03,25.70
2018,07,22,17,04,25.70
2018,07,22,17,05,25.70
2018,07,22,17,06,25.70
2018,07,22,17,07,25.60
2018,07,22,17,08,25.60
2018,07,22,17,09,25.50
2018,07,22,17,10,25.50
2018,07,22,17,11,25.30
2018,07,22,17,12,25.30
2018,07,22,17,13,25.20
2018,07,22,17,14,25.20
2018,07,22,17,15,25.20
2018,07,22,17,16,25.10
2018,07,22,17,17,25.00
2018,07,22,17,18,25.00
2018,07,22,17,19,24.90